Date String (YYYY-MM-DD hh:mm:ss) UTC,Instrument flags,Ambient pressure (hPa),Sample flow (lpm),Bypass flow (lpm),Sample temperature (°C),Ambient temperature (°C),ASC tube jacket temperature (°C),LED temperature (°C),Box temperature (°C),Sample RH (%),Span deviation,Mass concentration (μg/m³),Mass concentration (μg/m³),Mass concentration (μg/m³)
DateTimeUTC,F1_M11,P_M11,Q1_M11,Q2_M11,T1_M11,T2_M11,T3_M11,T4_M11,T5_M11,U1_M11,ZSPAN_M11,X2_M11,X0_M11,X1_M11
2022-07-18 16:00:00,,0827.7,5.00,0.00,29.6,27.4,00.0,38.3,31.4,31.0,0000.0,0007.66,0019.22,0006.57
2022-07-18 16:01:00,,0827.7,5.01,0.00,29.6,27.6,00.0,38.3,31.3,31.6,0000.0,0007.70,0019.94,0006.58
2022-07-18 16:02:00,,0827.7,4.99,0.00,29.6,27.7,00.0,38.3,31.4,32.4,0000.0,0007.67,0019.59,0006.56
2022-07-18 16:03:00,,0827.7,5.01,0.00,29.6,27.9,00.0,38.3,31.4,31.6,0000.0,0007.67,0020.63,0006.55
2022-07-18 16:04:00,,0827.7,5.00,0.00,29.6,28.1,00.0,38.3,31.4,31.5,0000.0,0007.71,0021.31,0006.52
2022-07-18 16:05:00,,0827.7,4.99,0.00,29.6,28.2,00.0,38.3,31.5,30.8,0000.0,0007.70,0021.15,0006.51
2022-07-18 16:06:00,,0827.7,5.01,0.00,29.6,28.4,00.0,38.3,31.6,30.3,0000.0,0007.71,0020.29,0006.50
2022-07-18 16:07:00,,0827.7,5.00,0.00,29.7,28.5,00.0,38.4,31.6,30.9,0000.0,0007.74,0019.92,0006.50
2022-07-18 16:08:00,,0827.7,4.99,0.00,29.7,28.3,00.0,38.3,31.7,31.8,0000.0,0007.71,0019.49,0006.49
2022-07-18 16:09:00,,0827.7,5.01,0.00,29.7,27.7,00.0,38.3,31.6,32.5,0000.0,0007.75,0019.30,0006.52
2022-07-18 16:10:00,,0827.7,4.99,0.00,29.7,27.4,00.0,38.3,31.5,32.9,0000.0,0007.83,0017.77,0006.55
2022-07-18 16:11:00,,0827.7,5.00,0.00,29.6,27.5,00.0,38.3,31.4,33.6,0000.0,0007.86,0017.56,0006.56
2022-07-18 16:12:00,,0827.7,5.00,0.00,29.6,27.6,00.0,38.3,31.3,33.5,0000.0,0007.83,0017.43,0006.56
2022-07-18 16:13:00,,0827.7,5.01,0.00,29.6,27.7,00.0,38.3,31.4,33.5,0000.0,0007.84,0017.73,0006.57
2022-07-18 16:14:00,,0827.7,5.00,0.00,29.6,27.9,00.0,38.3,31.4,33.0,0000.0,0007.79,0016.77,0006.58
2022-07-18 16:15:00,,0827.7,5.00,0.00,29.6,28.1,00.0,38.3,31.5,33.3,0000.0,0007.76,0016.14,0006.60
2022-07-18 16:16:00,,0827.6,5.00,0.00,29.6,28.2,00.0,38.3,31.5,33.2,0000.0,0007.80,0017.29,0006.62
2022-07-18 16:17:00,,0827.6,4.99,0.00,29.6,28.3,00.0,38.3,31.6,33.1,0000.0,0007.84,0017.83,0006.63
2022-07-18 16:18:00,,0827.7,5.01,0.00,29.7,28.0,00.0,38.3,31.6,32.7,0000.0,0007.80,0017.80,0006.64
2022-07-18 16:19:00,,0827.6,5.00,0.00,29.6,27.5,00.0,38.2,31.5,32.1,0000.0,0007.87,0018.12,0006.64
2022-07-18 16:20:00,,0827.6,4.99,0.00,29.6,27.3,00.0,38.2,31.4,32.0,0000.0,0007.94,0018.92,0006.64
2022-07-18 16:21:00,,0827.6,5.00,0.00,29.5,27.4,00.0,38.2,31.3,32.1,0000.0,0007.92,0019.82,0006.62
2022-07-18 16:22:00,,0827.6,5.00,0.00,29.5,27.6,00.0,38.2,31.3,31.7,0000.0,0007.88,0020.14,0006.59
2022-07-18 16:23:00,,0827.6,5.00,0.00,29.5,27.7,00.0,38.3,31.3,31.0,0000.0,0007.90,0019.91,0006.55
2022-07-18 16:24:00,,0827.6,5.01,0.00,29.5,27.9,00.0,38.3,31.4,30.6,0000.0,0007.83,0019.53,0006.51
2022-07-18 16:25:00,,0827.6,4.99,0.00,29.5,28.1,00.0,38.3,31.5,29.6,0000.0,0007.81,0019.51,0006.46
2022-07-18 16:26:00,,0827.6,5.00,0.00,29.6,28.3,00.0,38.3,31.5,30.8,0000.0,0007.79,0019.23,0006.41
2022-07-18 16:27:00,,0827.6,4.99,0.00,29.6,28.4,00.0,38.3,31.6,32.4,0000.0,0007.78,0018.36,0006.40
2022-07-18 16:28:00,,0827.6,4.99,0.00,29.6,28.1,00.0,38.2,31.6,32.3,0000.0,0007.74,0018.14,0006.38
2022-07-18 16:29:00,,0827.6,5.01,0.00,29.6,27.5,00.0,38.2,31.5,33.1,0000.0,0007.75,0019.74,0006.37
2022-07-18 16:30:00,,0827.6,4.99,0.00,29.6,27.4,00.0,38.2,31.4,33.3,0000.0,0007.71,0019.99,0006.37
2022-07-18 16:31:00,,0827.7,5.00,0.00,29.6,27.5,00.0,38.2,31.3,33.8,0000.0,0007.63,0019.37,0006.37
2022-07-18 16:32:00,,0827.6,5.00,0.00,29.5,27.6,00.0,38.2,31.3,34.4,0000.0,0007.65,0018.47,0006.39
2022-07-18 16:33:00,,0827.5,5.00,0.00,29.5,27.8,00.0,38.2,31.3,34.5,0000.0,0007.69,0018.00,0006.42
2022-07-18 16:34:00,,0827.5,5.00,0.00,29.5,28.0,00.0,38.3,31.4,34.5,0000.0,0007.69,0018.67,0006.44
2022-07-18 16:35:00,,0827.5,5.01,0.00,29.6,28.1,00.0,38.3,31.4,34.7,0000.0,0007.75,0018.68,0006.48
2022-07-18 16:36:00,,0827.5,5.01,0.00,29.6,28.3,00.0,38.3,31.5,34.8,0000.0,0007.84,0019.42,0006.54
2022-07-18 16:37:00,,0827.5,5.00,0.00,29.7,28.3,00.0,38.3,31.6,34.6,0000.0,0007.90,0021.85,0006.59
2022-07-18 16:38:00,,0827.5,5.00,0.00,29.8,27.8,00.0,38.2,31.7,33.8,0000.0,0007.89,0022.69,0006.60
2022-07-18 16:39:00,,0827.5,4.99,0.00,29.8,27.4,00.0,38.2,31.6,32.7,0000.0,0007.88,0022.90,0006.58
2022-07-18 16:40:00,,0827.5,5.00,0.00,29.8,27.4,00.0,38.2,31.5,32.3,0000.0,0007.86,0022.21,0006.56
2022-07-18 16:41:00,,0827.5,5.00,0.00,29.8,27.5,00.0,38.2,31.4,31.5,0000.0,0007.82,0021.69,0006.52
2022-07-18 16:42:00,,0827.6,5.00,0.00,29.8,27.7,00.0,38.3,31.4,31.9,0000.0,0007.77,0022.24,0006.49
2022-07-18 16:43:00,,0827.5,4.99,0.00,29.8,27.8,00.0,38.3,31.4,31.8,0000.0,0007.73,0022.41,0006.46
2022-07-18 16:44:00,,0827.5,5.00,0.00,29.8,28.0,00.0,38.3,31.5,31.2,0000.0,0007.64,0022.29,0006.40
2022-07-18 16:45:00,,0827.5,5.01,0.00,29.8,28.2,00.0,38.4,31.5,31.1,0000.0,0007.55,0022.49,0006.36
2022-07-18 16:46:00,,0827.5,4.99,0.00,29.9,28.3,00.0,38.4,31.6,31.8,0000.0,0007.49,0023.25,0006.32
2022-07-18 16:47:00,,0827.5,5.01,0.00,29.9,27.8,00.0,38.3,31.6,31.8,0000.0,0007.40,0023.36,0006.25
2022-07-18 16:48:00,,0827.5,4.99,0.00,29.8,27.4,00.0,38.3,31.5,31.6,0000.0,0007.34,0021.70,0006.19
2022-07-18 16:49:00,,0827.5,5.00,0.00,29.8,27.3,00.0,38.3,31.4,32.6,0000.0,0007.24,0020.95,0006.14
2022-07-18 16:50:00,,0827.6,5.01,0.00,29.7,27.4,00.0,38.3,31.3,33.6,0000.0,0007.23,0022.81,0006.12
2022-07-18 16:51:00,,0827.6,5.00,0.00,29.7,27.6,00.0,38.3,31.3,34.1,0000.0,0007.21,0022.19,0006.11
2022-07-18 16:52:00,,0827.5,5.00,0.00,29.7,27.8,00.0,38.3,31.4,34.0,0000.0,0007.26,0022.01,0006.11
2022-07-18 16:53:00,,0827.5,4.99,0.00,29.7,28.0,00.0,38.4,31.4,33.5,0000.0,0007.33,0021.09,0006.10
2022-07-18 16:54:00,,0827.5,5.01,0.00,29.7,28.2,00.0,38.4,31.5,33.3,0000.0,0007.30,0021.54,0006.07
2022-07-18 16:55:00,,0827.5,5.00,0.00,29.8,28.3,00.0,38.4,31.6,33.2,0000.0,0007.31,0022.15,0006.07
2022-07-18 16:56:00,,0827.5,5.00,0.00,29.8,28.2,00.0,38.4,31.6,33.4,0000.0,0007.35,0021.00,0006.08
2022-07-18 16:57:00,,0827.5,5.01,0.00,29.8,27.6,00.0,38.3,31.5,33.5,0000.0,0007.39,0021.38,0006.08
2022-07-18 16:58:00,,0827.5,5.00,0.00,29.7,27.4,00.0,38.3,31.5,32.7,0000.0,0007.43,0021.50,0006.08
2022-07-18 16:59:00,,0827.5,4.99,0.00,29.7,27.4,00.0,38.3,31.4,32.9,0000.0,0007.46,0020.98,0006.08
